TimeEST,TemperatureF,Dew PointF,Humidity,Sea Level PressureIn,VisibilityMPH,Wind Direction,Wind SpeedMPH,Gust SpeedMPH,PrecipitationIn,Events,Conditions,WindDirDegrees,DateUTC
12:54 AM,14.0,9.0,80,30.35,-9999.0,North,-9999.0,-,N/A,,Unknown,0,2012-12-16 05:54:00
1:54 AM,14.0,9.0,80,30.33,-9999.0,North,-9999.0,-,N/A,,Unknown,0,2012-12-16 06:54:00
2:54 AM,14.0,8.1,77,30.33,-9999.0,North,-9999.0,-,N/A,,Unknown,0,2012-12-16 07:54:00
3:54 AM,15.1,8.1,74,30.32,-9999.0,North,-9999.0,-,N/A,,Unknown,0,2012-12-16 08:54:00
4:54 AM,16.0,9.0,74,30.31,-9999.0,North,-9999.0,-,N/A,,Unknown,0,2012-12-16 09:54:00
5:54 AM,17.1,10.0,74,30.30,-9999.0,North,-9999.0,-,N/A,,Unknown,0,2012-12-16 10:54:00
6:54 AM,17.1,10.0,74,30.30,-9999.0,North,-9999.0,-,N/A,,Unknown,0,2012-12-16 11:54:00
7:54 AM,19.0,10.0,68,30.29,-9999.0,North,-9999.0,-,N/A,,Unknown,0,2012-12-16 12:54:00
8:54 AM,19.9,10.9,68,30.29,-9999.0,North,-9999.0,-,N/A,,Unknown,0,2012-12-16 13:54:00
9:54 AM,19.9,12.9,74,30.30,-9999.0,North,-9999.0,-,N/A,,Unknown,0,2012-12-16 14:54:00
10:54 AM,23.0,14.0,68,30.27,-9999.0,North,-9999.0,-,N/A,,Unknown,0,2012-12-16 15:54:00
11:54 AM,24.1,15.1,69,30.24,-9999.0,North,-9999.0,-,N/A,,Unknown,0,2012-12-16 16:54:00
12:54 PM,23.0,19.0,85,30.23,-9999.0,North,-9999.0,-,0.02,,Unknown,0,2012-12-16 17:54:00
1:54 PM,23.0,19.9,88,30.20,-9999.0,North,-9999.0,-,0.01,,Unknown,0,2012-12-16 18:54:00
2:54 PM,23.0,19.9,88,30.19,-9999.0,North,-9999.0,-,0.02,,Unknown,0,2012-12-16 19:54:00
3:54 PM,23.0,19.9,88,30.18,-9999.0,North,-9999.0,-,0.01,,Unknown,0,2012-12-16 20:54:00
4:54 PM,23.0,21.0,92,30.16,-9999.0,North,-9999.0,-,0.05,,Unknown,0,2012-12-16 21:54:00
5:54 PM,23.0,19.9,88,30.16,-9999.0,North,-9999.0,-,0.01,,Unknown,0,2012-12-16 22:54:00
6:54 PM,23.0,19.9,88,30.15,-9999.0,North,-9999.0,-,0.02,,Unknown,0,2012-12-16 23:54:00
7:54 PM,24.1,21.0,88,30.14,-9999.0,North,-9999.0,-,0.02,,Unknown,0,2012-12-17 00:54:00
8:54 PM,24.1,21.0,88,30.14,-9999.0,North,-9999.0,-,0.01,,Unknown,0,2012-12-17 01:54:00
9:54 PM,24.1,21.9,91,30.12,-9999.0,North,-9999.0,-,0.02,,Unknown,0,2012-12-17 02:54:00
10:54 PM,25.0,21.9,88,30.12,-9999.0,North,-9999.0,-,0.01,,Unknown,0,2012-12-17 03:54:00
11:54 PM,25.0,23.0,92,30.10,-9999.0,North,-9999.0,-,N/A,,Unknown,0,2012-12-17 04:54:00